Location: Wald
(31.7579°N, 86.6655°W)
Time: 19:29:47
(UTC+00:00)

Cosmos 2112 Rocket - Pass Details

Date: 14 July 2020
Orbit: 756 x 787 km, 74.1° (Epoch: 13 August)

Event Time Altitude Azimuth Distance (km) Brightness Sun altitude
Exits shadow 02:19:11 14° 176° (S) 2,093 5.9 -16.1°
Maximum altitude 02:23:40 52° 102° (ESE) 969 4.2 -16.9°
Drops below altitude 10° 02:28:51 10° 27° (NNE) 2,350 6.7 -17.7°
Sets 02:31:17 0° 23° (NNE) 3,281 7.5 -18.1°
